www.pogodaiklimat.ru

Погода и климат >> Архив погоды >> Россия >> Алтайский край >> Змеиногорск


АРХИВ ПОГОДЫ в Змеиногорске

Время (UTC), дата Ветер
(напр.,м/с)
 
Видим.   Явления Облачность Т
(С)
Тd
(С)
f
(%)
Тe
(С)
Тes
(С)
Комфортность P
(гПа)
Po
(гПа)
Тmin
(С)
Tmax
(С)
R
(мм)
R24
(мм)
S
(см)
12 13.05 С 5
{11}
20 км 10/4 600 м
[Sc Cs]
+7.4 -8.3 32 +4 +5 1016.7 973.9 +11.1
15 13.05 С 3
{10}
20 км 10/0
[Cs]
+2.8 -8.6 43 -0 -0 1019.6 975.9
18 13.05 штиль 0 20 км 10/0
[Cs]
-0.9 -9.4 52 -1 -1 1020.9 976.6
21 13.05 штиль 0 20 км 10/0
[Cs]
-3.0 -9.0 63 -4 -4 1021.5 976.8
00 14.05 штиль 0 20 км 10/0
[Cs]
-3.0 -7.3 72 -4 -3 1022.2 977.5 -6.0
03 14.05 СВ 1 20 км 10/4 600 м
[Cu hum Cs]
+4.6 -8.0 40 +4 +9 1020.4 977.0
06 14.05 З 4 20 км 10/10 600 м
[Sc]
+6.5 -9.4 31 +4 +4 1018.8 975.7
09 14.05 Ю 4 20 км 10/10 600 м
[Sc]
+7.2 -10.6 27 +5 +5 1015.5 972.7
12 14.05 Ю 4
{10}
20 км 10/10 600 м
[Sc]
+5.6 -5.2 46 +2 +2 1012.9 970.0 +7.7
15 14.05 Ю 4
{11}
10 км слаб. ливневой дождь 10/10 600 м
[Cb cap]
+4.3 -1.4 66 0 0 1009.4 966.5
18 14.05 ЮЗ 2
{12}
4000 м ливневой дождь 10/10 600 м
[Cb cap]
+3.1 +1.5 89 0 0 1007.5 964.5
21 14.05 С 3 20 км {ливн. осадки} 10/10 600 м
[Sc]
+2.5 -0.6 80 -2 -2 1009.3 966.1
00 15.05 СЗ 3 4000 м ливневой снег 10/10 600 м
[Cb cap]
0.0 -1.3 91 -5 -5 1012.8 969.0 0.0 10 1
03 15.05 З 2 4000 м слаб. ливневой снег 10/10 600 м
[Cb cap]
+0.3 -1.4 88 -3 -3 1016.2 972.3 -0.1
06 15.05 С 3 20 км в посл. час ливневой дождь 10/10 600 м
[Cb cap]
+2.9 -0.3 79 -1 -1 1017.9 974.4
09 15.05 С 5
{12}
4000 м слаб. крупа 10/10 600 м
[Cb cap]
+1.3 -1.2 83 -4 -4 1020.4 976.5
12 15.05 СЗ 2 20 км {ливн. осадки} 10/9 600 м
[Cb cap Cs]
+3.7 -0.7 73 +1 +1 1021.7 978.2 +5.6 3
15 15.05 штиль 0 20 км 10/9 600 м
[Cb cap Cs]
+0.9 -1.0 87 -0 -0 1024.1 980.0
18 15.05 штиль 0 20 км {ливн. осадки} 10/0
[Cs]
-0.9 -2.4 90 -2 -2 1024.4 980.0
21 15.05 штиль 0 1000 м дымка 10/0
[Cs]
-1.8 -3.1 91 -3 -3 1024.2 979.7
00 16.05 штиль 0 500 м туман 10/0
[Cs]
-1.1 -2.3 92 -2 -2 1024.4 980.0 -2.5 0.0
03 16.05 СВ 1 20 км {туман} 10/3 600 м
[Sc Cs]
+3.5 +2.3 92 +2 +8 1024.3 980.6
06 16.05 Ю 1 20 км в посл. час крупа {ливн. осадки} 10/8 600 м
[Cb cap Ci]
+5.5 -1.6 60 +5 +8 1023.3 980.0
09 16.05 СЗ 2 20 км в посл. час крупа {ливн. осадки} 10/10 600 м
[Cb cap]
+3.5 +0.2 79 +1 +1 1023.5 979.8
12 16.05 С 4 20 км {ливн. осадки} 10/3 600 м
[Sc Cs]
+7.5 -4.0 44 +5 +6 1022.0 979.0 +7.9 2
15 16.05 З 1 20 км в посл. час ливневой дождь 10/9 600 м
[Cb cap Cs]
+2.7 -0.2 81 +1 +1 1024.1 980.3
18 16.05 штиль 0 20 км {ливн. осадки} 10/6 600 м
[Sc Cs]
-1.2 -2.6 90 -2 -2 1024.8 980.3
21 16.05 штиль 0 20 км 10/3 600 м
[Sc Cs]
-2.9 -4.2 91 -4 -4 1025.0 980.2
00 17.05 штиль 0 20 км 10/0
[Cs]
-2.6 -3.9 91 -4 -3 1026.1 981.4 -4.1 0.0
03 17.05 С 3 20 км 10/4 600 м
[Cu hum Cs]
+6.7 -1.4 56 +4 +8 1025.3 982.0
06 17.05 С 3 20 км 10/5 600 м
[Cu hum Cs]
+8.9 -4.6 38 +7 +13 1024.5 981.6
09 17.05 СВ 2 20 км 10/8 600 м
[Cu hum Cs]
+10.9 -4.9 33 +10 +12 1023.7 981.1
12 17.05 С 1 20 км 10/3 600 м
[Cu hum Cs]
+9.9 -7.5 29 +10 +12 1023.5 980.8 +12.4
15 17.05 штиль 0 20 км 10/0
[Cs]
+3.5 -3.2 62 +3 +3 1024.4 980.7
18 17.05 штиль 0 20 км 10/0
[Cs]
-0.8 -3.6 81 -2 -2 1024.7 980.3
21 17.05 СВ 1 20 км 10/0
[Cs]
-2.7 -5.3 82 -5 -5 1023.6 978.9
00 18.05 ЮВ 2 20 км 10/0
[Cs]
+4.3 -5.4 49 +2 +3 1021.4 977.9 -2.8
03 18.05 Ю 6-13
{13}
20 км 10/0
[Cs]
+11.8 -7.6 25 +10 +12 1019.0 976.7
06 18.05 Ю 6-12
{15}
20 км 10/0
[Cs]
+16.3 -9.7 16 +15 +20 1015.6 974.1
09 18.05 Ю 6-11
{15}
20 км 10/0
[Cs]
+19.6 -8.6 14 +19 +23 1012.0 971.1
12 18.05 Ю 5
{13}
20 км 10/0
[Cs]
+19.8 -8.0 15 +19 +20 1010.2 969.4 +20.6
15 18.05 Ю 4
{11}
20 км 10/0
[Cs]
+15.5 -6.6 21 +15 +15 1011.0 969.6
18 18.05 Ю 3 20 км 10/0
[Cs]
+12.2 -6.7 26 +11 +11 1010.4 968.5
21 18.05 Ю 4 20 км 10/0
[Ci]
+12.0 -7.8 24 +11 +11 1009.3 967.4
00 19.05 Ю 4 20 км 10/0
[Ci]
+11.9 -6.8 26 +10 +11 1009.0 967.2 +10.5
03 19.05 Ю 8-15
{17}
20 км 10/3 600 м
[Sc Ac cast Cc]
+19.6 -8.6 14 +19 +19 1007.2 966.5
06 19.05 Ю 7-14
{18}
20 км 9/9 600 м
[Sc]
+21.6 -5.8 15 +20 +21 1007.2 966.8
09 19.05 Ю 8-15
{17}
20 км в посл. час ливневой дождь 10/3 600 м
[Sc Ac cast Cs]
+20.8 +2.4 30 +21 +22 комфорт 1008.6 968.0
12 19.05 Ю 5 20 км в посл. час ливневой дождь 10/3 600 м
[Sc Ac trans Ci]
+20.0 +3.5 34 +20 +21 1008.5 967.9 +22.6 0.0
15 19.05 Ю 3
{12}
20 км слаб. ливневой дождь 10/10 600 м
[Cb cap]
+15.6 +6.6 55 +15 +15 1009.0 967.9
18 19.05 Ю 3
{12}
10 км слаб. ливневой дождь 10/10 600 м
[Cb cap]
+13.1 +10.0 81 +12 +12 1010.0 968.4
21 19.05 Ю 3 20 км в посл. час ливневой дождь 10/10 600 м
[Cb cap]
+13.5 +9.8 78 +12 +12 1009.0 967.5
00 20.05 Ю 4 20 км {ливн. осадки} 10/9 600 м
[Sc Ci]
+14.3 +8.6 69 +13 +13 1009.6 968.2 +12.9 3
03 20.05 Ю 4 20 км 10/3 600 м
[Sc Cs]
+17.5 +11.4 67 +17 +21 1010.3 969.3
06 20.05 ЮЗ 5 20 км 10/3 600 м
[Cu med, cong Cs]
+21.9 +4.4 32 +22 +27 комфорт 1008.7 968.3
09 20.05 Ю 5
{12}
20 км 10/4 600 м
[Cu med, cong Ci]
+23.3 +1.5 24 +23 +26 комфорт 1007.2 967.0

 

Местоположение метеостанции Змеиногорск (Алтайский край, Россия): широта 51.15 долгота 82.17 высота над уровнем моря 355 м.

В архиве по умолчанию представлена погода в Змеиногорске за последнюю неделю. Архивные данные за месяц целиком и за предыдущие месяцы, начиная с января 2011 года, Вы можете получить, выбрав интересующий диапазон дат из раскрывающегося списка и нажав кнопку "Ввод!".


*Определитесь, кто Вы:
робот инопланетянин человек

Внимание! Время в таблицах - всемирное. Для получения местного времени необходимо прибавить поправку, которая равна 7 ч.

Смотрите также архив погоды в соседних городах и на ближайших метеорологических станциях:

Погода в Горняке (Алтайский край, Россия) (52 км)
Погода в Шемонаихе (Восточно-Казахстанская область, Казахстан) (60 км)
Погода в Краснощеково (Алтайский край, Россия) (70 км)
Погода в Рубцовске (Алтайский край, Россия) (83 км)
Погода в Секисовке (Восточно-Казахстанская область, Казахстан) (96 км)
Погода в Поспелихе (Алтайский край, Россия) (97 км)
Погода в Первомайском (Восточно-Казахстанская область, Казахстан) (99 км)
Погода в Чарышском (Алтайский край, Россия) (101 км)
Погода в Дмитриевке (Восточно-Казахстанская область, Казахстан) (103 км)
Погода в Таврии (Восточно-Казахстанская область, Казахстан) (109 км)

Пояснения к столбцам:

Ветер - указаны скорость ветра в м/с - средняя за 10 мин, порывы в срок и между сроками (в фигурных скобках) и направление, откуда дует ветер: С - северный, СВ - северо-восточный, В - восточный, ЮВ - юго-восточный, Ю - южный, ЮЗ - юго-западный, З - западный, СЗ - северо-западный.
Видимость - горизонтальная дальность видимости в метрах или километрах. При видимости от 1 до 10 км при отсутствии осадков обычно наблюдается дымка, при ухудшении видимости до 1 км и менее - туман. В сухую погоду видимость может ухудшаться дымом, пылью или мглою.
Явления - указаны атмосферные явления, наблюдавшиеся в срок или в последний час перед сроком; фигурными скобками обозначены явления, наблюдавшиеся между сроками (за 1-3 часа до срока); квадратными скобками обозначены град или гололедные отложения с указанием их диаметра в мм.
Облачность - указаны через наклонную черту общая и нижняя облачность в баллах и высота нижней границы облаков в метрах; квадратными скобками обозначены формы облаков: Ci - перистые, Cs - перисто-слоистые, Cc - перисто-кучевые, Ac - высококучевые, As - высокослоистые, Sc - слоисто-кучевые, Ns - слоисто-дождевые, Cu - кучевые, Cb - кучево-дождевые. Подробнее классификацию облаков см. в Атласе облаков (PDF).
T - Температура воздуха - температура, измеренная на высоте 2 м над землей.
Td - Температура точки росы - температура, при понижении до которой содержащийся в воздухе водяной пар достигнет насыщения.
f - Относительная влажность воздуха - влажноcть воздуха, измеренная на высоте 2 м над землей.
Te - Эффективная температура - температура, которую ощущает одетый по сезону человек в тени. Характеристика душности погоды. При расчете учитывается влияние влажности воздуха и скорости ветра на теплоощущения человека.
Tes - Эффективная температура на солнце - температура, которую ощущает человек, с поправкой на солнечный нагрев. Характеристика знойности погоды. Зависит от высоты солнца над горизонтом, облачности и скорости ветра. Ночью, в пасмурную погоду, а также при ветре 12 м/с и более поправка равна нулю.
P - Атмосферное давление - приведенное к уровню моря атмосферное давление.
Po - Атмосферное давление - измеренное на уровне метеостанции атмосферное давление.
Tmin - Минимальная температура - минимум температуры воздуха на высоте 2 м над землей.
Tmax - Максимальная температура - максимум температуры воздуха на высоте 2 м над землей.
R - Количество осадков - Количество выпавших осадков за период времени, мм. При наведении курсора мыши на число - период времени, за который выпало указанное количество осадков.
R24 - Количество осадков - Количество выпавших осадков за 24 часа, мм.
S - Снежный покров - Высота снежного покрова, см. При наведении курсора мыши на число - состояние снежного покрова и степень покрытия местности в баллах.